NOAA 16 DEB, 41353

Orbit data source: Space-Track

NOAA 16 DEB, 41353 is space debris in SSO originally from a launch on Thu, 21 Sep 2000 UTC launched from the Air Force Western Test Range (AFWTR). Debris objects in space refer to the collection of defunct objects orbiting the Earth. Examples of debris include non-operational satellites, rocket bodies, and fragments generated from explosions, collisions, or faulty payload assembly.

Loading next visibility...
Identifier
41353, 2000-055HW
Orbit
SSO
Country
Flag of USUS
Related business
Manufacturer
Unknown
Mission
Spacecraft
Bus & Motor
Unknown
Mass
Unknown
Launch date (UTC)
2000-09-21 (26 years ago)
Launch vehicle
Unknown
Launch site
Air Force Western Test Range (AFWTR)
Object type
Payload
Rocket body
Debris
Shape & HBR
Unknown shape, 0.1 m
Radar Cross Section
Medium (>0.1 m² and <1 m²)

Expand to show TLE details & history
Last TLE update: 1 day ago

TLE from 1 day ago
0 NOAA 16 DEB
1 41353U 00055HW  26205.98116590  .00002818  00000-0  11963-2 0  9991
2 41353  98.6880 272.5362 0021049 320.6835  39.2815 14.26007997541369
Epoch: 2026-07-24T23:32Z
TLE epoch observation values (Epoch: 2026-07-24T23:32:52.733Z)
Latitude
-0.00011°
Longitude
-23.38351°
Altitude
796.336 km
Speed
7.461 km/s
True Right ascension
18h 10m 08s
True Declination
0° 00' 00"
Sunlit
Object was in full shadow at epoch
Visualization orbit readout
Latitude
Unknown
Longitude
Unknown
Altitude
Unknown
Speed
Unknown
Apparent Right ascension
Unknown
Apparent Declination
Unknown
Sunlit
N/A
Visualization observer readout
Local Sidereal Time
17:58:41
Azimuth
Unknown
Elevation
Unknown
Doppler factor
Unknown
Orbital elements
Apogee altitude
817.369 km
Perigee altitude
787.141 km
Semi-major axis
7,180.392 km
Eccentricity
0.0021
Inclination
98.688°
RAAN
272.5362°
Arg. of periapsis
320.6835°
True anomaly
39.43453°
Mean anomaly
39.2815°
Eccentric anomaly
39.35798°
Mean motion
3.56715 °/min
Orbital period
100.92 mins
BSTAR
0.0011963
Loading maneuver chart data...
Computing Atmospheric mass density...
Loading historical data...
Loading historical data...
Loading historical data...
Loading historical data...
Loading historical data...
Loading historical data...
Loading historical data...

Documentation

Showing up to 5 results
|